This demonstration page uses our WeatherBlox Daily Observations layout. Learn more.

40.92945, -100.16068

Hourly Observations for March 19, 2020

Temp ( °F °C ) Dew Point ( °F °C ) Humidity (%) Winds ( mph kmh ) Pressure ( in mb ) Visibility ( mi km ) Precip ( " mm )
12:15 am 00:15 Cloudy with Fog 47 8.2 47 8.2 100 100 E 9 15 29.85 1011 0.5 0.80467 0 0
12:35 am 00:35 Cloudy with Fog 47 8.2 47 8.2 100 100 E 12 19 29.83 1010 0.5 0.80467 0 0
12:55 am 00:55 Cloudy with Fog 47 8.2 47 8.2 100 100 E 12 19 29.82 1010 0.5 0.80467 0 0
1:15 am 01:15 Cloudy with Fog 47 8.3 47 8.3 100 100 E 12 19 29.8 1009 0.5 0.80467 0 0
1:35 am 01:35 Cloudy with Fog 47 8.3 47 8.3 100 100 E 13 20 29.8 1009 0.5 0.80467 0 0
1:55 am 01:55 Cloudy with Fog 47 8.3 47 8.3 100 100 E 8 13 29.8 1009 0.5 0.80467 0 0
2:15 am 02:15 Cloudy with Fog 47 8.3 47 8.3 100 100 E 12 19 29.78 1008 0.25 0.402335 0 0
2:35 am 02:35 Cloudy with Fog 47 8.3 47 8.3 100 100 E 9 15 29.77 1008 0.25 0.402335 0 0
2:55 am 02:55 Cloudy with Fog 47 8.3 47 8.3 100 100 E 10 17 29.77 1008 0.25 0.402335 0 0
3:10 am 03:10 Cloudy with Fog 47 8.3 47 8.3 100 100 E 8 13 29.76 1008 0.5 0.80467 0 0
3:35 am 03:35 Cloudy with Fog 47 8.1 47 8.1 100 100 E 10 17 29.77 1008 0.5 0.80467 0 0
3:55 am 03:55 Cloudy with Rain 47 8.2 47 8.2 100 100 ENE 8 13 29.75 1007 0.25 0.402335 0 0
4:15 am 04:15 Cloudy with Heavy Rain 47 8.1 47 8.1 100 100 NNE 6 9 29.75 1007 0.25 0.402335 0 0
4:35 am 04:35 Cloudy with Light Rain 47 8.1 47 8.1 100 100 NE 7 11 29.75 1007 0.5 0.80467 0 0
4:55 am 04:55 Cloudy with Heavy Rain 47 8.1 47 8.1 100 100 N 6 9 29.75 1007 1 1.60934 0.03 0.762
5:15 am 05:15 Cloudy with Light Rain 46 8 46 8 100 100 NE 12 19 29.71 1006 2.5 4.02335 0 0
5:35 am 05:35 Cloudy with Mist and Fog 46 8 46 8 100 100 ENE 13 20 29.72 1006 3 4.82802 0.01 0.254
5:55 am 05:55 Cloudy with Light Rain 46 7.8 46 7.8 100 100 ENE 14 22 29.7 1006 2 3.21868 0.01 0.254
6:15 am 06:15 Cloudy with Mist and Fog 46 7.8 46 7.8 100 100 ENE 15 24 29.69 1005 2.5 4.02335 0 0
6:35 am 06:35 Cloudy 46 7.8 46 7.8 100 100 ENE 16 26 29.69 1005 10 16.0934 0 0
6:55 am 06:55 Cloudy 46 7.8 46 7.8 100 100 NE 13 20 29.69 1005 10 16.0934 0 0
7:15 am 07:15 Cloudy 46 7.8 46 7.8 100 100 ENE 13 20 29.69 1005 10 16.0934 0 0
7:35 am 07:35 Cloudy 46 7.7 46 7.7 100 100 ENE 15 24 29.69 1005 7 11.26538 0 0
7:55 am 07:55 Cloudy 46 7.7 46 7.7 100 100 E 14 22 29.69 1005 7 11.26538 0 0
8:15 am 08:15 Cloudy with Mist and Fog 46 7.7 46 7.7 100 100 E 12 19 29.69 1005 3 4.82802 0 0
8:35 am 08:35 Cloudy with Mist and Fog 46 7.7 46 7.7 100 100 ENE 12 19 29.68 1005 3 4.82802 0 0
8:55 am 08:55 Cloudy with Mist and Fog 46 7.7 46 7.7 100 100 E 10 17 29.68 1005 4 6.43736 0 0
9:15 am 09:15 Cloudy with Mist and Fog 46 7.8 46 7.8 100 100 ENE 7 11 29.68 1005 3 4.82802 0 0
9:35 am 09:35 Cloudy with Mist and Fog 46 7.9 46 7.9 100 100 NE 10 17 29.68 1005 4 6.43736 0 0
9:55 am 09:55 Cloudy with Mist and Fog 46 8 46 8 100 100 ENE 12 19 29.68 1005 1.5 2.41401 0 0
10:15 am 10:15 Cloudy with Mist and Fog 46 8 46 8 100 100 NE 16 26 29.68 1005 1.5 2.41401 0 0
10:35 am 10:35 Cloudy with Mist and Fog 47 8.1 47 8.1 100 100 NE 13 20 29.68 1005 1.25 2.011675 0 0
10:55 am 10:55 Cloudy with Mist and Fog 47 8.2 47 8.2 100 100 NE 17 28 29.68 1005 1 1.60934 0 0
11:15 am 11:15 Cloudy with Mist and Fog 47 8.1 47 8.1 100 100 NE 18 30 29.67 1005 1.5 2.41401 0 0
11:35 am 11:35 Cloudy 47 8.1 47 8.1 100 100 NE 20 31 29.68 1005 7 11.26538 0 0
11:55 am 11:55 Cloudy 47 8.1 46 8 99 99 NE 20 31 29.69 1005 10 16.0934 0 0
12:15 pm 12:15 Cloudy 46 8 46 7.8 99 99 NE 23 37 29.68 1005 10 16.0934 0 0
12:35 pm 12:35 Cloudy 46 7.8 46 7.6 99 99 NE 23 37 29.67 1005 10 16.0934 0 0
12:55 pm 12:55 Cloudy 46 8 46 7.7 98 98 NE 22 35 29.67 1005 10 16.0934 0 0
1:15 pm 13:15 Cloudy with Light Rain 46 7.7 45 7.3 97 97 NE 24 39 29.68 1005 10 16.0934 0 0
1:35 pm 13:35 Cloudy 46 8 46 7.5 97 97 NE 23 37 29.68 1005 10 16.0934 0 0
1:55 pm 13:55 Cloudy 47 8.2 46 7.5 95 95 NE 26 43 29.68 1005 10 16.0934 0 0
2:15 pm 14:15 Cloudy 46 7.7 44 6.9 95 95 NE 28 44 29.67 1005 10 16.0934 0 0
2:35 pm 14:35 Cloudy 46 7.5 44 6.7 95 95 NE 25 41 29.68 1005 10 16.0934 0 0
2:55 pm 14:55 Cloudy 45 7.2 44 6.6 96 96 NE 25 41 29.68 1005 7 11.26538 0 0
3:15 pm 15:15 Cloudy 45 7.1 44 6.5 96 96 NNE 24 39 29.68 1005 7 11.26538 0 0
3:35 pm 15:35 Windy with Storms Likely 45 7 43 6.2 95 95 NE 30 48 29.69 1005 10 16.0934 0.01 0.254
3:55 pm 15:55 Cloudy with Thunderstorms 44 6.9 43 6 94 94 NNE 20 31 29.69 1005 7 11.26538 0.01 0.254
4:15 pm 16:15 Cloudy with Mist and Fog 42 5.8 41 4.9 94 94 N 29 46 29.72 1006 5 8.0467 0 0
4:35 pm 16:35 Cloudy with Light Rain 41 4.9 39 3.9 93 93 N 30 48 29.74 1007 7 11.26538 0 0
4:55 pm 16:55 Windy with Snow Likely 38 3.3 36 2.3 93 93 NNE 36 57 29.79 1009 2 3.21868 0.05 1.27
5:15 pm 17:15 Cloudy with Light Rain 37 2.5 35 1.8 95 95 NNE 38 61 29.78 1009 2.5 4.02335 0.03 0.762
5:35 pm 17:35 Cloudy with Light Rain 35 1.6 33 0.8 94 94 N 37 59 29.79 1009 5 8.0467 0.05 1.27
5:55 pm 17:55 Cloudy with Light Drizzle 34 1.1 32 0.2 94 94 N 26 43 29.88 1012 10 16.0934 0.05 1.27
6:15 pm 18:15 Windy with Snow Likely 33 0.5 32 -0.1 96 96 NNE 35 56 29.87 1012 4 6.43736 0 0
6:35 pm 18:35 Windy with Snow Likely 32 0 31 -0.6 96 96 N 32 52 29.92 1013 1.75 2.816345 0.02 0.508
6:55 pm 18:55 Windy with Snow Likely 32 0 31 -0.7 95 95 N 22 35 29.98 1015 1.75 2.816345 0.02 0.508
7:15 pm 19:15 Windy with Snow Likely 31 -0.3 30 -1 95 95 N 33 54 30 1016 1 1.60934 0 0
7:35 pm 19:35 Cloudy with Snow 30 -1.1 29 -1.5 97 97 N 30 48 30.02 1017 0.25 0.402335 0.02 0.508
7:55 pm 19:55 Cloudy 29 -1.5 28 -2 96 96 N 22 35 30.06 1018 N/A 0.02 0.508
8:15 pm 20:15 Cloudy 29 -1.8 28 -2.3 96 96 N 25 41 30.09 1019 N/A 0.01 0.254
8:35 pm 20:35 Cloudy 28 -2.4 27 -3 96 96 N 32 52 30.13 1020 N/A 0.01 0.254
8:55 pm 20:55 Cloudy 27 -3 26 -3.6 96 96 N 30 48 30.17 1022 N/A 0.01 0.254
9:10 pm 21:10 Cloudy 26 -3.2 25 -4 94 94 N 23 37 30.19 1022 N/A 0 0
9:35 pm 21:35 Cloudy 26 -3.5 25 -4.1 96 96 N 23 37 30.23 1024 N/A 0 0
9:55 pm 21:55 Cloudy 26 -3.5 24 -4.4 94 94 N 26 43 30.25 1024 N/A 0 0
10:15 pm 22:15 undefined 26 -3.5 24 -4.4 94 94 N 24 39 30.26 1025 N/A 0 0
10:35 pm 22:35 Cloudy 26 -3.6 24 -4.5 94 94 N 30 48 30.28 1026 N/A 0 0
10:55 pm 22:55 undefined 26 -3.6 23 -4.9 91 91 N 26 43 30.31 1027 N/A 0 0
11:15 pm 23:15 Cloudy 26 -3.5 23 -5 89 89 N 30 48 30.33 1027 N/A 0 0
11:35 pm 23:35 Cloudy 26 -3.5 23 -5.2 88 88 N 30 48 30.35 1028 N/A 0 0
11:55 pm 23:55 Cloudy 26 -3.6 22 -5.3 88 88 N 26 43 30.36 1028 N/A 0 0

Powered by AerisWeather